Wetterdaten: Dienstag, 22.06.2010
Datum Zeit Temp. A. Feuchte A. Luftdruck Regen Wind Richtung Richtung Sonnenschein UV Solar Windben
22.06.2010 00:00 10,4 C 83 % 1020,0 hPa 0,0 mm 0,0 km/h (0 Bft) W 269 0 min 0 UV-I 0 W/m 1,6 km/h (1 Bft)
22.06.2010 00:10 11,6 C 80 % 1020,0 hPa 0,0 mm 3,2 km/h (1 Bft) W-NW 292 0 min 0 UV-I 0 W/m 9,7 km/h (2 Bft)
22.06.2010 00:20 11,6 C 80 % 1020,0 hPa 0,0 mm 3,2 km/h (1 Bft) W 270 0 min 0 UV-I 0 W/m 9,7 km/h (2 Bft)
22.06.2010 00:30 11,5 C 80 % 1020,0 hPa 0,0 mm 3,2 km/h (1 Bft) W-NW 292 0 min 0 UV-I 0 W/m 11,3 km/h (2 Bft)
22.06.2010 00:40 11,4 C 80 % 1020,0 hPa 0,0 mm 3,2 km/h (1 Bft) W-NW 292 0 min 0 UV-I 0 W/m 16,1 km/h (3 Bft)
22.06.2010 00:50 11,4 C 79 % 1020,0 hPa 0,0 mm 3,2 km/h (1 Bft) N 360 0 min 0 UV-I 0 W/m 8,0 km/h (2 Bft)
22.06.2010 01:00 11,4 C 79 % 1020,0 hPa 0,0 mm 1,6 km/h (1 Bft) W 270 0 min 0 UV-I 0 W/m 9,7 km/h (2 Bft)
22.06.2010 01:10 11,3 C 79 % 1020,0 hPa 0,0 mm 0,0 km/h (0 Bft) W 270 0 min 0 UV-I 0 W/m 4,8 km/h (1 Bft)
22.06.2010 01:20 11,2 C 80 % 1020,0 hPa 0,0 mm 1,6 km/h (1 Bft) W 270 0 min 0 UV-I 0 W/m 4,8 km/h (1 Bft)
22.06.2010 01:30 11,2 C 80 % 1020,0 hPa 0,0 mm 1,6 km/h (1 Bft) W-NW 292 0 min 0 UV-I 0 W/m 6,4 km/h (2 Bft)
22.06.2010 01:40 11,1 C 77 % 1020,0 hPa 0,0 mm 1,6 km/h (1 Bft) W-NW 292 0 min 0 UV-I 0 W/m 6,4 km/h (2 Bft)
22.06.2010 01:50 11,0 C 74 % 1020,0 hPa 0,0 mm 1,6 km/h (1 Bft) W-NW 292 0 min 0 UV-I 0 W/m 12,9 km/h (3 Bft)
22.06.2010 02:00 11,0 C 73 % 1020,0 hPa 0,0 mm 3,2 km/h (1 Bft) W-NW 292 0 min 0 UV-I 0 W/m 12,9 km/h (3 Bft)
22.06.2010 02:10 10,9 C 72 % 1020,0 hPa 0,0 mm 4,8 km/h (1 Bft) W-NW 292 0 min 0 UV-I 0 W/m 11,3 km/h (2 Bft)
22.06.2010 02:20 10,8 C 72 % 1020,0 hPa 0,0 mm 3,2 km/h (1 Bft) W-NW 292 0 min 0 UV-I 0 W/m 9,7 km/h (2 Bft)
22.06.2010 02:30 10,8 C 73 % 1020,0 hPa 0,0 mm 1,6 km/h (1 Bft) W-NW 292 0 min 0 UV-I 0 W/m 6,4 km/h (2 Bft)
22.06.2010 02:40 10,7 C 74 % 1020,0 hPa 0,0 mm 1,6 km/h (1 Bft) W 270 0 min 0 UV-I 0 W/m 6,4 km/h (2 Bft)
22.06.2010 02:50 10,6 C 75 % 1020,0 hPa 0,0 mm 1,6 km/h (1 Bft) W 270 0 min 0 UV-I 0 W/m 6,4 km/h (2 Bft)
22.06.2010 03:00 10,5 C 76 % 1020,0 hPa 0,0 mm 1,6 km/h (1 Bft) W-NW 292 0 min 0 UV-I 0 W/m 6,4 km/h (2 Bft)
22.06.2010 03:10 10,4 C 77 % 1020,0 hPa 0,0 mm 3,2 km/h (1 Bft) W 270 0 min 0 UV-I 0 W/m 9,7 km/h (2 Bft)
22.06.2010 03:20 10,4 C 77 % 1020,0 hPa 0,0 mm 1,6 km/h (1 Bft) W-NW 292 0 min 0 UV-I 0 W/m 8,0 km/h (2 Bft)
22.06.2010 03:30 10,3 C 78 % 1020,0 hPa 0,0 mm 0,0 km/h (0 Bft) W 270 0 min 0 UV-I 0 W/m 6,4 km/h (2 Bft)
22.06.2010 03:40 10,3 C 78 % 1020,0 hPa 0,0 mm 0,0 km/h (0 Bft) W 270 0 min 0 UV-I 0 W/m 4,8 km/h (1 Bft)
22.06.2010 03:50 10,2 C 78 % 1020,0 hPa 0,0 mm 1,6 km/h (1 Bft) W 270 0 min 0 UV-I 0 W/m 6,4 km/h (2 Bft)
22.06.2010 04:00 10,2 C 78 % 1020,0 hPa 0,0 mm 0,0 km/h (0 Bft) W 270 0 min 0 UV-I 0 W/m 6,4 km/h (2 Bft)
22.06.2010 04:10 10,2 C 79 % 1020,0 hPa 0,0 mm 1,6 km/h (1 Bft) W 270 0 min 0 UV-I 0 W/m 9,7 km/h (2 Bft)
22.06.2010 04:20 10,1 C 79 % 1020,0 hPa 0,0 mm 1,6 km/h (1 Bft) W 270 0 min 0 UV-I 0 W/m 6,4 km/h (2 Bft)
22.06.2010 04:30 10,1 C 79 % 1020,0 hPa 0,0 mm 3,2 km/h (1 Bft) W 270 0 min 0 UV-I 0 W/m 8,0 km/h (2 Bft)
22.06.2010 04:40 10,1 C 80 % 1020,0 hPa 0,0 mm 1,6 km/h (1 Bft) W 270 0 min 0 UV-I 0 W/m 6,4 km/h (2 Bft)
22.06.2010 04:50 10,1 C 79 % 1020,0 hPa 0,0 mm 1,6 km/h (1 Bft) W 270 0 min 0 UV-I 0 W/m 8,0 km/h (2 Bft)
22.06.2010 05:00 10,1 C 80 % 1020,0 hPa 0,0 mm 3,2 km/h (1 Bft) W 270 0 min 0 UV-I 0 W/m 9,7 km/h (2 Bft)
22.06.2010 05:10 10,0 C 80 % 1020,0 hPa 0,0 mm 3,2 km/h (1 Bft) W 270 0 min 0 UV-I 0 W/m 9,7 km/h (2 Bft)
22.06.2010 05:20 10,0 C 80 % 1020,0 hPa 0,0 mm 3,2 km/h (1 Bft) W 270 0 min 0 UV-I 0 W/m 9,7 km/h (2 Bft)
22.06.2010 05:30 10,0 C 80 % 1020,0 hPa 0,0 mm 1,6 km/h (1 Bft) W 270 0 min 0 UV-I 5 W/m 8,0 km/h (2 Bft)
22.06.2010 05:40 9,9 C 80 % 1020,0 hPa 0,0 mm 1,6 km/h (1 Bft) W-SW 247 0 min 0 UV-I 7 W/m 8,0 km/h (2 Bft)
22.06.2010 05:50 9,9 C 80 % 1020,0 hPa 0,0 mm 1,6 km/h (1 Bft) W 270 0 min 0 UV-I 14 W/m 6,4 km/h (2 Bft)
22.06.2010 06:00 9,8 C 81 % 1020,0 hPa 0,0 mm 1,6 km/h (1 Bft) W 270 0 min 0 UV-I 21 W/m 6,4 km/h (2 Bft)
22.06.2010 06:10 9,8 C 81 % 1020,0 hPa 0,0 mm 1,6 km/h (1 Bft) W-SW 247 0 min 0 UV-I 26 W/m 6,4 km/h (2 Bft)
22.06.2010 06:20 9,8 C 81 % 1020,0 hPa 0,0 mm 1,6 km/h (1 Bft) W 270 0 min 0 UV-I 33 W/m 4,8 km/h (1 Bft)
22.06.2010 06:30 9,9 C 81 % 1020,0 hPa 0,0 mm 1,6 km/h (1 Bft) W 270 0 min 0 UV-I 40 W/m 6,4 km/h (2 Bft)
22.06.2010 06:40 9,9 C 81 % 1020,0 hPa 0,0 mm 1,6 km/h (1 Bft) W 270 0 min 0 UV-I 49 W/m 11,3 km/h (2 Bft)
22.06.2010 06:50 10,0 C 81 % 1020,0 hPa 0,0 mm 1,6 km/h (1 Bft) W 270 0 min 0 UV-I 62 W/m 8,0 km/h (2 Bft)
22.06.2010 07:00 10,1 C 81 % 1020,0 hPa 0,0 mm 3,2 km/h (1 Bft) W 270 0 min 0 UV-I 63 W/m 11,3 km/h (2 Bft)
22.06.2010 07:10 10,1 C 81 % 1020,0 hPa 0,0 mm 1,6 km/h (1 Bft) W-NW 292 0 min 0 UV-I 70 W/m 9,7 km/h (2 Bft)
22.06.2010 07:20 10,1 C 80 % 1020,0 hPa 0,0 mm 1,6 km/h (1 Bft) W 270 0 min 0 UV-I 76 W/m 8,0 km/h (2 Bft)
22.06.2010 07:30 10,2 C 80 % 1020,0 hPa 0,0 mm 1,6 km/h (1 Bft) W-NW 292 0 min 0 UV-I 90 W/m 6,4 km/h (2 Bft)
22.06.2010 07:40 10,3 C 79 % 1020,0 hPa 0,0 mm 1,6 km/h (1 Bft) W-SW 247 0 min 1 UV-I 116 W/m 8,0 km/h (2 Bft)
22.06.2010 07:50 10,4 C 78 % 1020,0 hPa 0,0 mm 1,6 km/h (1 Bft) W 270 0 min 1 UV-I 146 W/m 8,0 km/h (2 Bft)
22.06.2010 08:00 10,7 C 78 % 1020,0 hPa 0,0 mm 3,0 km/h (1 Bft) NW 313 0 min 1 UV-I 119 W/m 4,8 km/h (1 Bft)
22.06.2010 08:10 10,7 C 77 % 1020,0 hPa 0,0 mm 1,6 km/h (1 Bft) W 270 0 min 1 UV-I 181 W/m 9,7 km/h (2 Bft)
22.06.2010 08:20 10,8 C 77 % 1020,0 hPa 0,0 mm 1,6 km/h (1 Bft) W-SW 247 0 min 1 UV-I 190 W/m 8,0 km/h (2 Bft)
22.06.2010 08:30 11,0 C 75 % 1020,0 hPa 0,0 mm 3,2 km/h (1 Bft) W 270 0 min 1 UV-I 229 W/m 11,3 km/h (2 Bft)
22.06.2010 08:40 11,1 C 74 % 1020,0 hPa 0,0 mm 3,2 km/h (1 Bft) W 270 0 min 1 UV-I 232 W/m 8,0 km/h (2 Bft)
22.06.2010 08:50 11,1 C 74 % 1020,0 hPa 0,0 mm 0,0 km/h (0 Bft) W 270 0 min 1 UV-I 220 W/m 4,8 km/h (1 Bft)
22.06.2010 09:00 11,2 C 73 % 1020,0 hPa 0,0 mm 1,6 km/h (1 Bft) W 270 0 min 1 UV-I 185 W/m 6,4 km/h (2 Bft)
22.06.2010 09:10 11,4 C 72 % 1020,0 hPa 0,0 mm 1,6 km/h (1 Bft) W-NW 292 0 min 1 UV-I 206 W/m 6,4 km/h (2 Bft)
22.06.2010 09:20 11,5 C 70 % 1020,0 hPa 0,0 mm 1,6 km/h (1 Bft) W-NW 292 0 min 1 UV-I 213 W/m 9,7 km/h (2 Bft)
22.06.2010 09:30 11,6 C 72 % 1020,0 hPa 0,0 mm 1,6 km/h (1 Bft) W-NW 292 0 min 2 UV-I 244 W/m 6,4 km/h (2 Bft)
22.06.2010 09:40 11,7 C 72 % 1020,0 hPa 0,0 mm 1,6 km/h (1 Bft) W-NW 292 0 min 2 UV-I 248 W/m 8,0 km/h (2 Bft)
22.06.2010 09:50 11,7 C 71 % 1020,0 hPa 0,0 mm 3,2 km/h (1 Bft) W-SW 247 0 min 2 UV-I 230 W/m 9,7 km/h (2 Bft)
22.06.2010 10:00 11,8 C 70 % 1020,0 hPa 0,0 mm 1,6 km/h (1 Bft) W 270 0 min 2 UV-I 251 W/m 8,0 km/h (2 Bft)
22.06.2010 10:10 11,8 C 71 % 1020,0 hPa 0,0 mm 3,2 km/h (1 Bft) W-NW 292 0 min 2 UV-I 287 W/m 9,7 km/h (2 Bft)
22.06.2010 10:20 11,8 C 70 % 1020,0 hPa 0,0 mm 3,2 km/h (1 Bft) W-NW 292 0 min 2 UV-I 301 W/m 11,3 km/h (2 Bft)
22.06.2010 10:30 12,1 C 70 % 1020,0 hPa 0,0 mm 1,6 km/h (1 Bft) W 270 0 min 2 UV-I 297 W/m 6,4 km/h (2 Bft)
22.06.2010 10:40 12,2 C 68 % 1020,0 hPa 0,0 mm 3,2 km/h (1 Bft) W 270 0 min 2 UV-I 306 W/m 9,7 km/h (2 Bft)
22.06.2010 10:50 12,3 C 69 % 1020,0 hPa 0,0 mm 3,2 km/h (1 Bft) W-SW 247 10 min 3 UV-I 469 W/m 9,7 km/h (2 Bft)
22.06.2010 11:00 12,7 C 64 % 1020,0 hPa 0,0 mm 3,2 km/h (1 Bft) W 270 10 min 4 UV-I 462 W/m 12,9 km/h (3 Bft)
22.06.2010 11:10 12,8 C 64 % 1020,0 hPa 0,0 mm 3,2 km/h (1 Bft) W 270 10 min 4 UV-I 548 W/m 8,0 km/h (2 Bft)
22.06.2010 11:20 12,9 C 64 % 1020,0 hPa 0,0 mm 3,2 km/h (1 Bft) W-SW 247 10 min 4 UV-I 508 W/m 9,7 km/h (2 Bft)
22.06.2010 11:30 12,9 C 65 % 1020,0 hPa 0,0 mm 3,2 km/h (1 Bft) W 270 0 min 3 UV-I 325 W/m 9,7 km/h (2 Bft)
22.06.2010 11:40 12,9 C 64 % 1020,0 hPa 0,0 mm 3,2 km/h (1 Bft) W 270 0 min 4 UV-I 417 W/m 11,3 km/h (2 Bft)
22.06.2010 11:50 13,1 C 64 % 1020,0 hPa 0,0 mm 3,2 km/h (1 Bft) W 270 10 min 4 UV-I 548 W/m 12,9 km/h (3 Bft)
22.06.2010 12:00 13,3 C 63 % 1020,0 hPa 0,0 mm 4,8 km/h (1 Bft) W-SW 247 10 min 4 UV-I 561 W/m 11,3 km/h (2 Bft)
22.06.2010 12:10 13,3 C 64 % 1020,0 hPa 0,0 mm 4,8 km/h (1 Bft) W 270 0 min 3 UV-I 364 W/m 11,3 km/h (2 Bft)
22.06.2010 12:20 13,2 C 66 % 1020,0 hPa 0,0 mm 3,2 km/h (1 Bft) NW 315 0 min 3 UV-I 366 W/m 9,7 km/h (2 Bft)
22.06.2010 12:30 13,1 C 67 % 1020,0 hPa 0,0 mm 1,6 km/h (1 Bft) W-NW 292 0 min 2 UV-I 188 W/m 8,0 km/h (2 Bft)
22.06.2010 12:40 12,9 C 67 % 1020,0 hPa 0,0 mm 1,6 km/h (1 Bft) W-NW 292 0 min 3 UV-I 301 W/m 8,0 km/h (2 Bft)
22.06.2010 12:50 13,3 C 63 % 1020,0 hPa 0,0 mm 1,6 km/h (1 Bft) SW 225 0 min 4 UV-I 427 W/m 6,4 km/h (2 Bft)
22.06.2010 13:00 13,7 C 64 % 1020,0 hPa 0,0 mm 3,2 km/h (1 Bft) W-SW 247 10 min 5 UV-I 645 W/m 11,3 km/h (2 Bft)
22.06.2010 13:10 14,4 C 63 % 1020,0 hPa 0,0 mm 1,6 km/h (1 Bft) W 270 10 min 8 UV-I 861 W/m 8,0 km/h (2 Bft)
22.06.2010 13:20 15,0 C 61 % 1020,0 hPa 0,0 mm 3,2 km/h (1 Bft) W-SW 247 10 min 7 UV-I 557 W/m 12,9 km/h (3 Bft)
22.06.2010 13:30 14,7 C 64 % 1020,0 hPa 0,0 mm 3,2 km/h (1 Bft) NW 315 10 min 7 UV-I 670 W/m 11,3 km/h (2 Bft)
22.06.2010 13:40 14,7 C 63 % 1020,0 hPa 0,0 mm 4,8 km/h (1 Bft) W-SW 247 10 min 5 UV-I 496 W/m 12,9 km/h (3 Bft)
22.06.2010 13:50 14,9 C 59 % 1020,0 hPa 0,0 mm 3,2 km/h (1 Bft) W-NW 292 10 min 5 UV-I 527 W/m 9,7 km/h (2 Bft)
22.06.2010 14:00 14,9 C 60 % 1020,0 hPa 0,0 mm 1,6 km/h (1 Bft) NW 315 0 min 4 UV-I 420 W/m 6,4 km/h (2 Bft)
22.06.2010 14:10 14,7 C 62 % 1020,0 hPa 0,0 mm 3,2 km/h (1 Bft) W 270 0 min 3 UV-I 304 W/m 9,7 km/h (2 Bft)
22.06.2010 14:20 14,6 C 64 % 1020,0 hPa 0,0 mm 1,6 km/h (1 Bft) S-SW 202 0 min 4 UV-I 464 W/m 8,0 km/h (2 Bft)
22.06.2010 14:30 15,2 C 61 % 1020,0 hPa 0,0 mm 1,6 km/h (1 Bft) W-SW 247 10 min 5 UV-I 524 W/m 9,7 km/h (2 Bft)
22.06.2010 14:40 15,2 C 58 % 1020,0 hPa 0,0 mm 1,6 km/h (1 Bft) W-SW 247 0 min 4 UV-I 441 W/m 9,7 km/h (2 Bft)
22.06.2010 14:50 15,4 C 62 % 1020,0 hPa 0,0 mm 1,6 km/h (1 Bft) W-NW 292 10 min 7 UV-I 1000 W/m 8,0 km/h (2 Bft)
22.06.2010 15:00 16,3 C 58 % 1020,0 hPa 0,0 mm 3,2 km/h (1 Bft) SW 225 10 min 7 UV-I 1041 W/m 9,7 km/h (2 Bft)
22.06.2010 15:10 16,3 C 57 % 1020,0 hPa 0,0 mm 1,6 km/h (1 Bft) S-SW 202 10 min 6 UV-I 835 W/m 8,0 km/h (2 Bft)
22.06.2010 15:20 16,4 C 57 % 1020,0 hPa 0,0 mm 1,6 km/h (1 Bft) SW 225 10 min 7 UV-I 1192 W/m 8,0 km/h (2 Bft)
22.06.2010 15:30 16,8 C 56 % 1020,0 hPa 0,0 mm 4,8 km/h (1 Bft) W-SW 247 10 min 5 UV-I 777 W/m 11,3 km/h (2 Bft)
22.06.2010 15:40 15,9 C 58 % 1020,0 hPa 0,0 mm 1,6 km/h (1 Bft) W-SW 247 0 min 3 UV-I 404 W/m 6,4 km/h (2 Bft)
22.06.2010 15:50 15,8 C 58 % 1020,0 hPa 0,0 mm 1,6 km/h (1 Bft) W-SW 247 0 min 3 UV-I 397 W/m 9,7 km/h (2 Bft)
22.06.2010 16:00 16,1 C 54 % 1020,0 hPa 0,0 mm 1,5 km/h (1 Bft) W-NW 300 10 min 4 UV-I 484 W/m 6,4 km/h (2 Bft)
22.06.2010 16:10 16,3 C 55 % 1020,0 hPa 0,0 mm 1,6 km/h (1 Bft) NW 315 10 min 4 UV-I 613 W/m 11,3 km/h (2 Bft)
22.06.2010 16:20 16,8 C 54 % 1020,0 hPa 0,0 mm 3,2 km/h (1 Bft) W 270 10 min 5 UV-I 942 W/m 8,0 km/h (2 Bft)
22.06.2010 16:30 16,8 C 54 % 1020,0 hPa 0,0 mm 3,2 km/h (1 Bft) W 270 10 min 5 UV-I 675 W/m 12,9 km/h (3 Bft)
22.06.2010 16:40 16,7 C 53 % 1020,0 hPa 0,0 mm 1,6 km/h (1 Bft) W 270 10 min 3 UV-I 476 W/m 8,0 km/h (2 Bft)
22.06.2010 16:50 16,8 C 53 % 1020,0 hPa 0,0 mm 1,6 km/h (1 Bft) W-SW 247 10 min 4 UV-I 877 W/m 8,0 km/h (2 Bft)
22.06.2010 17:00 17,3 C 51 % 1020,0 hPa 0,0 mm 3,2 km/h (1 Bft) SW 225 10 min 3 UV-I 826 W/m 16,1 km/h (3 Bft)
22.06.2010 17:10 16,7 C 53 % 1020,0 hPa 0,0 mm 1,6 km/h (1 Bft) W-SW 247 0 min 2 UV-I 229 W/m 8,0 km/h (2 Bft)
22.06.2010 17:20 16,3 C 53 % 1020,0 hPa 0,0 mm 0,0 km/h (0 Bft) W 270 0 min 2 UV-I 237 W/m 4,8 km/h (1 Bft)
22.06.2010 17:30 16,3 C 55 % 1020,0 hPa 0,0 mm 0,0 km/h (0 Bft) W-NW 292 0 min 2 UV-I 218 W/m 3,2 km/h (1 Bft)
22.06.2010 17:40 16,1 C 57 % 1020,0 hPa 0,0 mm 1,6 km/h (1 Bft) W-SW 247 10 min 2 UV-I 719 W/m 9,7 km/h (2 Bft)
22.06.2010 17:50 16,9 C 53 % 1020,0 hPa 0,0 mm 1,6 km/h (1 Bft) W 270 10 min 2 UV-I 378 W/m 11,3 km/h (2 Bft)
22.06.2010 18:00 16,7 C 55 % 1020,0 hPa 0,0 mm 1,6 km/h (1 Bft) W-SW 247 10 min 1 UV-I 422 W/m 11,3 km/h (2 Bft)
22.06.2010 18:10 16,7 C 55 % 1020,0 hPa 0,0 mm 1,6 km/h (1 Bft) W-SW 247 0 min 1 UV-I 265 W/m 6,4 km/h (2 Bft)
22.06.2010 18:20 16,7 C 55 % 1020,0 hPa 0,0 mm 1,6 km/h (1 Bft) N 360 0 min 1 UV-I 223 W/m 6,4 km/h (2 Bft)
22.06.2010 18:30 16,7 C 55 % 1020,0 hPa 0,0 mm 0,0 km/h (0 Bft) N-NW 337 0 min 1 UV-I 241 W/m 4,8 km/h (1 Bft)
22.06.2010 18:40 16,6 C 54 % 1020,0 hPa 0,0 mm 0,0 km/h (0 Bft) N-NW 337 10 min 1 UV-I 297 W/m 3,2 km/h (1 Bft)
22.06.2010 19:40 15,9 C 57 % 1020,0 hPa 0,0 mm 1,0 km/h (0 Bft) W 272 0 min 1 UV-I 90 W/m 3,2 km/h (1 Bft)
22.06.2010 19:50 15,9 C 58 % 1020,0 hPa 0,0 mm 0,5 km/h (0 Bft) W 272 0 min 0 UV-I 74 W/m 3,2 km/h (1 Bft)
22.06.2010 20:00 15,8 C 59 % 1020,0 hPa 0,0 mm 0,2 km/h (0 Bft) W 272 0 min 0 UV-I 65 W/m 3,2 km/h (1 Bft)
22.06.2010 20:10 15,8 C 59 % 1020,0 hPa 0,0 mm 0,4 km/h (0 Bft) W 271 0 min 0 UV-I 69 W/m 3,2 km/h (1 Bft)
22.06.2010 20:20 15,6 C 61 % 1020,0 hPa 0,0 mm 0,4 km/h (0 Bft) W 273 0 min 0 UV-I 52 W/m 3,2 km/h (1 Bft)
22.06.2010 20:30 15,3 C 63 % 1020,0 hPa 0,0 mm 0,4 km/h (0 Bft) W 273 0 min 0 UV-I 40 W/m 4,8 km/h (1 Bft)
22.06.2010 20:40 15,2 C 63 % 1020,0 hPa 0,0 mm 0,3 km/h (0 Bft) W 273 0 min 0 UV-I 40 W/m 3,2 km/h (1 Bft)
22.06.2010 20:50 15,1 C 64 % 1020,0 hPa 0,0 mm 0,0 km/h (0 Bft) W 272 0 min 0 UV-I 40 W/m 1,6 km/h (1 Bft)
22.06.2010 21:00 15,0 C 66 % 1020,0 hPa 0,0 mm 0,0 km/h (0 Bft) W 273 0 min 0 UV-I 35 W/m 0,0 km/h (0 Bft)
22.06.2010 21:10 14,5 C 69 % 1020,0 hPa 0,0 mm 0,0 km/h (0 Bft) W 273 0 min 0 UV-I 29 W/m 0,0 km/h (0 Bft)
22.06.2010 21:20 14,1 C 71 % 1020,0 hPa 0,0 mm 0,0 km/h (0 Bft) W 273 10 min 0 UV-I 24 W/m 0,0 km/h (0 Bft)
22.06.2010 21:30 13,7 C 73 % 1020,0 hPa 0,0 mm 0,0 km/h (0 Bft) W 272 10 min 0 UV-I 16 W/m 0,0 km/h (0 Bft)
22.06.2010 21:40 13,4 C 74 % 1020,0 hPa 0,0 mm 0,0 km/h (0 Bft) W 273 0 min 0 UV-I 8 W/m 0,0 km/h (0 Bft)
22.06.2010 21:50 13,0 C 75 % 1020,0 hPa 0,0 mm 0,0 km/h (0 Bft) W 272 0 min 0 UV-I 0 W/m 0,0 km/h (0 Bft)
22.06.2010 22:00 12,7 C 77 % 1020,0 hPa 0,0 mm 0,0 km/h (0 Bft) W 273 0 min 0 UV-I 0 W/m 0,0 km/h (0 Bft)
22.06.2010 22:10 12,3 C 78 % 1020,0 hPa 0,0 mm 0,0 km/h (0 Bft) W 272 0 min 0 UV-I 0 W/m 0,0 km/h (0 Bft)
22.06.2010 22:20 12,2 C 79 % 1020,0 hPa 0,0 mm 0,0 km/h (0 Bft) W 273 0 min 0 UV-I 0 W/m 0,0 km/h (0 Bft)
22.06.2010 22:30 12,2 C 79 % 1020,0 hPa 0,0 mm 0,0 km/h (0 Bft) W 273 0 min 0 UV-I 0 W/m 0,0 km/h (0 Bft)
22.06.2010 22:40 12,2 C 79 % 1020,0 hPa 0,0 mm 0,0 km/h (0 Bft) W 273 0 min 0 UV-I 0 W/m 0,0 km/h (0 Bft)
22.06.2010 22:50 12,2 C 79 % 1020,0 hPa 0,0 mm 0,0 km/h (0 Bft) W 273 0 min 0 UV-I 0 W/m 0,0 km/h (0 Bft)
22.06.2010 23:00 12,2 C 79 % 1020,0 hPa 0,0 mm 0,0 km/h (0 Bft) W 273 0 min 0 UV-I 0 W/m 0,0 km/h (0 Bft)
22.06.2010 23:10 11,1 C 82 % 1020,0 hPa 0,0 mm 0,0 km/h (0 Bft) N 0 0 min 0 UV-I 0 W/m 1,6 km/h (1 Bft)
22.06.2010 23:40 10,8 C 83 % 1020,0 hPa 0,0 mm 0,0 km/h (0 Bft) W 272 0 min 0 UV-I 0 W/m 0,0 km/h (0 Bft)
22.06.2010 23:50 10,8 C 82 % 1020,0 hPa 0,0 mm 0,0 km/h (0 Bft) W 273 0 min 0 UV-I 0 W/m 1,6 km/h (1 Bft)
_ Min-Zeit 05:50 17:00 00:00 - 00:00 - - - - - 21:00
Minimum _ 9,8 C 51 % 1020,0 hPa - 0,0 km/h (0 Bft) - - - - - 0,0 km/h (0 Bft)
_ Max-Zeit 17:00 00:00 00:00 00:00 02:10 - - 10:50 13:10 15:20 00:40
Maximum _ 17,6 C 83 % 1020,0 hPa 0,0 mm 4,8 km/h
W-NW (1 Bft)
- - 10 min 8 UV-I 1192 W/m 16,1 km/h
N-NO (3 Bft)
Durchschnitt _ 12,8 C 70 % 1020,0 hPa #0,0 mm 1,8 km/h (1 Bft) W - #5:10 h 3 UV-I 328 W/m 7,3 km/h (2 Bft)